Showing default

HULIANWANG DIGUI-123, 67063

Orbit data source: Space-Track

HULIANWANG DIGUI-123, 67063 is a payload satellite owned by Zhongguo Xingwang (CN) in LEO that was launched on Thu, 11 Dec 2025 UTC via a CHANG ZHENG 12 launch vehicle from the Wenchang Satellite Launch Center (WSC). Payload-class satellites include a variety of spacecraft equipped with specific instruments for various scientific and technological missions. These include communications satellites like Starlink; space stations such as the ISS; scientific satellites like the Hubble; Earth observation satellites from companies like Planet Labs, Umbra, and HawkEye 360; GPS; miniature CubeSats for education and research; and military/defense satellites.

Loading next visibility...
Identifier
67063, 2025-295E
Orbit
LEO
Country
Flag of CNCN / PRC
Related business
Manufacturer
SECM
Mission
Operational Civil Communications
Bus & Motor
XINGWANG S, Unknown motor
Mass
~800 kg wet, ~800 kg dry
Launch date (UTC)
2025-12-11 (6 months ago)
Launch vehicle
CHANG ZHENG 12
Launch site
Wenchang Satellite Launch Center (WSC)
Object type
Payload
Rocket body
Debris
Shape & HBR
Box + 2 Pan, 14.5 m
Radar Cross Section
5.935 m², Large (>1 m²)

Expand to show TLE details & history
Last TLE update: 14 hours ago

TLE from 14 hours ago
0 HULIANWANG DIGUI-123
1 67063U 25295E   26171.28063259 -.00000088  00000-0  77266-4 0  9996
2 67063  50.0054  14.3978 0001016  94.4315 265.6673 13.29330689 25910
Epoch: 2026-06-20T06:44Z
TLE epoch observation values (Epoch: 2026-06-20T06:44:06.655Z)
Latitude
-0.00005°
Longitude
4.87251°
Altitude
1,149.853 km
Speed
7.279 km/s
True Right ascension
00h 57m 35s
True Declination
0° 00' 00"
Sunlit
Object was in daylight at epoch
Visualization orbit readout
Latitude
Unknown
Longitude
Unknown
Altitude
Unknown
Speed
Unknown
Apparent Right ascension
Unknown
Apparent Declination
Unknown
Sunlit
N/A
Visualization observer readout
Local Sidereal Time
07:13:48
Azimuth
Unknown
Elevation
Unknown
Doppler factor
Unknown
Orbital elements
Apogee altitude
1,150.758 km
Perigee altitude
1,149.229 km
Semi-major axis
7,528.13 km
Eccentricity
0.0001
Inclination
50.0054°
RAAN
14.3978°
Arg. of periapsis
94.4315°
True anomaly
265.65569°
Mean anomaly
265.6673°
Eccentric anomaly
265.6615°
Mean motion
3.32286 °/min
Orbital period
108.34 mins
BSTAR
0.000077266
Loading maneuver chart data...
Computing Atmospheric mass density...
Loading historical data...
Loading historical data...
Loading historical data...
Loading historical data...
Loading historical data...
Loading historical data...
Loading historical data...

Documentation

Showing up to 5 results
|